VR2R-13 Weather Reports


Display with metric or nautical units.
time (UTC)temp
F
wind
direction
speed
MPH
gust
MPH
rain 1hr
in
rain 24hr
in
rain mn
in
humidity
%
barometer
mb
20260508083316 69 352 3.0 5.0 0.00 0.00 0.00 95 913.7
20260508083016 69 343 2.0 4.0 0.00 0.00 0.00 95 913.7
20260508082814 69 6 1.0 3.0 0.00 0.00 0.00 96 913.6
20260508082415 69 353 3.0 6.0 0.00 0.00 0.00 95 913.6
20260508082314 69 349 3.0 6.0 0.00 0.00 0.00 95 913.7
20260508081816 69 11 0.0 0.0 0.00 0.00 0.00 96 913.7
20260508081314 69 337 1.0 3.0 0.00 0.00 0.00 96 913.7
20260508081215 69 11 4.0 6.0 0.00 0.00 0.00 96 913.7
20260508080814 69 21 3.0 5.0 0.00 0.00 0.00 96 913.7
20260508080615 69 42 1.0 4.0 0.00 0.00 0.00 96 913.7
20260508080314 69 41 2.0 4.0 0.00 0.00 0.00 96 913.7
20260508080015 69 354 2.0 4.0 0.00 0.00 0.00 95 913.8
20260508075814 69 360 2.0 4.0 0.00 0.00 0.00 95 913.8
20260508075415 69 345 0.0 4.0 0.00 0.00 0.00 95 913.9
20260508075314 69 353 1.0 4.0 0.00 0.00 0.00 95 913.8
20260508074814 69 30 0.0 2.0 0.00 0.00 0.00 95 913.8
20260508074315 69 346 3.0 5.0 0.00 0.00 0.00 95 913.9
20260508074215 69 360 3.0 5.0 0.00 0.00 0.00 95 913.9
20260508073813 69 358 3.0 4.0 0.00 0.00 0.00 95 913.8
20260508073315 69 19 2.0 4.0 0.00 0.00 0.00 95 913.9
20260508073015 69 17 2.0 4.0 0.00 0.00 0.00 95 913.9
20260508072813 69 27 1.0 3.0 0.00 0.00 0.00 95 913.9
20260508072415 69 32 2.0 4.0 0.00 0.00 0.00 95 913.9
20260508072313 69 31 1.0 2.0 0.00 0.00 0.00 95 913.9
20260508071815 69 99 0.0 1.0 0.00 0.00 0.00 95 913.9
20260508071813 69 97 0.0 1.0 0.00 0.00 0.00 95 913.9
20260508071313 69 13 1.0 2.0 0.00 0.00 0.00 95 913.9
20260508071215 69 20 1.0 2.0 0.00 0.00 0.00 95 913.9
20260508070813 69 4 0.0 2.0 0.00 0.00 0.00 95 913.9
20260508070615 69 29 1.0 3.0 0.00 0.00 0.00 96 913.9
20260508070316 69 62 2.0 4.0 0.00 0.00 0.00 96 914.0
20260508070015 69 62 2.0 3.0 0.00 0.00 0.00 96 914.0
20260508065813 69 64 2.0 3.0 0.00 0.00 0.00 96 914.0
20260508065415 69 6 0.0 1.0 0.00 0.00 0.00 96 914.1
20260508065313 69 40 1.0 2.0 0.00 0.00 0.00 96 914.1
20260508064813 69 53 1.0 2.0 0.00 0.00 0.00 96 914.1
20260508064313 69 36 1.0 2.0 0.00 0.00 0.00 96 914.1
20260508064215 69 10 1.0 2.0 0.00 0.00 0.00 96 914.1
20260508063813 68 44 0.0 2.0 0.00 0.00 0.00 96 914.2
20260508063614 68 42 1.0 4.0 0.00 0.00 0.00 96 914.2
20260508063316 69 49 2.0 4.0 0.00 0.00 0.00 96 914.3
20260508063014 69 65 2.0 3.0 0.00 0.00 0.00 96 914.3
20260508062813 69 60 0.0 3.0 0.00 0.00 0.00 96 914.3
20260508062415 69 52 2.0 3.0 0.00 0.00 0.00 96 914.3
20260508062313 69 54 2.0 3.0 0.00 0.00 0.00 96 914.3
20260508061815 69 68 2.0 3.0 0.00 0.00 0.00 96 914.3
20260508061813 69 71 2.0 3.0 0.00 0.00 0.00 96 914.3
20260508061313 69 47 2.0 3.0 0.00 0.00 0.00 96 914.4
20260508061214 69 61 2.0 3.0 0.00 0.00 0.00 96 914.4
20260508060813 69 61 1.0 3.0 0.00 0.00 0.00 96 914.4
20260508060614 69 19 2.0 3.0 0.00 0.00 0.00 96 914.5
20260508060316 69 51 0.0 3.0 0.00 0.00 0.00 96 914.5
20260508060014 69 66 2.0 3.0 0.00 0.00 0.00 96 914.4
20260508055813 69 53 1.0 3.0 0.00 0.00 0.00 96 914.5
20260508055416 69 66 2.0 4.0 0.00 0.00 0.00 96 914.5
20260508055313 69 35 2.0 4.0 0.00 0.00 0.00 96 914.5
20260508054818 69 65 0.0 0.0 0.00 0.00 0.00 96 914.5
20260508054313 69 121 2.0 3.0 0.00 0.00 0.00 95 914.5
20260508054214 69 55 2.0 3.0 0.00 0.00 0.00 96 914.5
20260508053813 69 34 2.0 3.0 0.00 0.00 0.00 95 914.6
20260508053614 69 76 1.0 2.0 0.00 0.00 0.00 95 914.6
20260508053313 70 83 1.0 2.0 0.00 0.00 0.00 95 914.6
20260508053014 70 115 0.0 1.0 0.00 0.00 0.00 95 914.7
20260508052813 70 61 2.0 3.0 0.00 0.00 0.00 95 914.7
20260508052414 70 90 0.0 2.0 0.00 0.00 0.00 94 914.6
20260508051814 71 185 1.0 3.0 0.00 0.00 0.00 95 914.7
20260508051215 70 175 1.0 3.0 0.00 0.00 0.00 95 914.8
20260508050812 69 360 0.0 3.0 0.00 0.00 0.00 95 914.8
20260508050614 70 70 0.0 3.0 0.00 0.00 0.00 96 914.8
20260508050014 70 251 1.0 3.0 0.00 0.00 0.00 95 914.9
20260508045812 69 199 1.0 3.0 0.00 0.00 0.00 95 914.9
20260508045414 69 95 1.0 3.0 0.00 0.00 0.00 95 914.9
20260508045314 69 4 0.0 3.0 0.00 0.00 0.00 95 914.9
20260508044814 69 264 2.0 5.0 0.00 0.00 0.00 95 915.0
20260508044812 69 263 2.0 5.0 0.00 0.00 0.00 95 915.0
20260508044312 70 224 1.0 3.0 0.00 0.00 0.00 94 915.0
20260508044213 70 188 0.0 2.0 0.00 0.00 0.00 94 915.0
20260508043812 70 186 1.0 5.0 0.00 0.00 0.00 94 915.1
20260508043614 70 176 1.0 6.0 0.00 0.00 0.00 94 915.1
20260508043312 70 108 2.0 6.0 0.00 0.00 0.00 93 915.2
20260508043013 70 181 3.0 6.0 0.00 0.00 0.00 94 915.2
20260508042812 70 97 0.0 6.0 0.00 0.00 0.00 94 915.2
20260508042313 70 213 0.0 1.0 0.00 0.00 0.00 94 915.2
20260508041814 70 16 1.0 3.0 0.00 0.00 0.00 93 915.3
20260508041213 70 12 2.0 3.0 0.00 0.00 0.00 93 915.3
20260508040613 70 39 1.0 5.0 0.00 0.00 0.00 93 915.3
20260508040312 71 21 3.0 5.0 0.00 0.00 0.00 92 915.3
20260508040013 71 82 3.0 5.0 0.00 0.00 0.00 92 915.3
20260508035812 71 158 1.0 4.0 0.00 0.00 0.00 92 915.3
20260508035413 71 65 1.0 4.0 0.00 0.00 0.00 92 915.3
20260508035312 71 105 0.0 4.0 0.00 0.00 0.00 92 915.3
20260508033812 71 169 2.0 4.0 0.00 0.00 0.00 92 915.4
20260508033613 71 87 0.0 4.0 0.00 0.00 0.00 91 915.4
20260508033013 71 87 4.0 9.0 0.00 0.00 0.00 92 915.4
20260508032812 71 83 6.0 9.0 0.00 0.00 0.00 92 915.4
20260508032413 71 126 4.0 7.0 0.00 0.00 0.00 92 915.4
20260508032311 71 122 3.0 6.0 0.00 0.00 0.00 93 915.4
20260508030811 69 66 0.0 4.0 0.00 0.00 0.00 95 915.7
20260508030613 69 143 0.0 0.0 0.00 0.00 0.00 95 915.8
20260508023311 71 83 1.0 5.0 0.00 0.00 0.00 91 915.9
20260508023012 71 126 0.0 3.0 0.00 0.00 0.00 91 916.0
20260508022811 70 155 0.0 2.0 0.00 0.00 0.00 92 916.1
20260508021813 70 58 0.0 1.0 0.00 0.00 0.00 93 916.1
20260508021311 70 114 1.0 4.0 0.00 0.00 0.00 93 916.1
20260508021212 70 84 0.0 3.0 0.00 0.00 0.00 93 916.1
20260508020811 70 109 0.0 0.0 0.00 0.00 0.00 93 916.1
20260508020612 70 99 0.0 3.0 0.00 0.00 0.00 92 916.1
20260508015412 71 58 1.0 4.0 0.00 0.00 0.00 90 916.2
20260508014813 72 70 3.0 6.0 0.00 0.00 0.00 89 916.1
20260508013012 72 182 1.0 4.0 0.00 0.00 0.00 88 916.2
20260508012412 72 102 1.0 2.0 0.00 0.00 0.00 88 916.2
20260508012311 72 225 1.0 2.0 0.00 0.00 0.00 88 916.2
20260508011811 73 281 3.0 5.0 0.00 0.00 0.00 88 916.1
20260508011311 74 306 3.0 5.0 0.00 0.00 0.00 86 915.9
20260508011212 74 253 3.0 5.0 0.00 0.00 0.00 87 915.9
20260508010612 71 217 2.0 3.0 0.00 0.00 0.00 90 915.9
20260508010311 71 230 2.0 5.0 0.00 0.00 0.00 89 915.8
20260508010012 71 263 3.0 5.0 0.00 0.00 0.00 89 915.7
20260508005810 72 270 2.0 4.0 0.00 0.00 0.00 88 915.8
20260508005412 72 217 2.0 3.0 0.00 0.00 0.00 88 915.7
20260508005310 72 236 1.0 3.0 0.00 0.00 0.00 88 915.7
20260508004812 72 219 1.0 2.0 0.00 0.00 0.00 88 915.7
20260508004810 72 225 1.0 2.0 0.00 0.00 0.00 88 915.7
20260508004310 72 148 2.0 4.0 0.00 0.00 0.00 90 915.7
20260508004212 72 145 2.0 4.0 0.00 0.00 0.00 90 915.7
20260508003810 71 156 0.0 2.0 0.00 0.00 0.00 89 915.7
20260508003611 71 91 1.0 5.0 0.00 0.00 0.00 88 915.7
20260508003310 71 353 0.0 5.0 0.00 0.00 0.00 88 915.7
20260508003012 71 288 3.0 5.0 0.00 0.00 0.00 88 915.7
20260508002811 71 227 2.0 3.0 0.00 0.00 0.00 87 915.6
20260508002412 71 148 0.0 2.0 0.00 0.00 0.00 89 915.6
20260508002310 72 195 2.0 3.0 0.00 0.00 0.00 91 915.6
20260508001812 71 155 0.0 2.0 0.00 0.00 0.00 90 915.6
20260508001810 71 153 0.0 2.0 0.00 0.00 0.00 90 915.5
20260508001310 72 131 1.0 2.0 0.00 0.00 0.00 89 915.6
20260508001211 72 60 1.0 2.0 0.00 0.00 0.00 89 915.6
20260508000810 72 120 0.0 3.0 0.00 0.00 0.00 88 915.6
20260508000611 73 88 1.0 3.0 0.00 0.00 0.00 87 915.6
20260508000312 73 146 1.0 6.0 0.00 0.00 0.00 88 915.5
20260508000011 73 60 1.0 2.0 0.00 0.00 0.00 87 915.5
20260507235811 73 299 2.0 5.0 0.00 0.00 0.00 87 915.5
20260507235411 72 313 1.0 3.0 0.00 0.00 0.00 87 915.5
20260507235310 72 22 1.0 2.0 0.00 0.00 0.00 87 915.4
20260507234811 72 67 3.0 5.0 0.00 0.00 0.00 89 915.3
20260507234311 72 183 0.0 0.0 0.00 0.00 0.00 89 915.3
20260507233810 71 33 2.0 5.0 0.00 0.00 0.00 88 915.2
20260507233611 71 66 2.0 5.0 0.00 0.00 0.00 88 915.1
20260507233310 71 324 2.0 4.0 0.00 0.00 0.00 89 915.1
20260507233011 71 18 1.0 4.0 0.00 0.00 0.00 89 915.1
20260507232810 71 232 1.0 4.0 0.00 0.00 0.00 89 915.1
20260507232411 71 276 0.0 3.0 0.00 0.00 0.00 88 915.1
20260507232310 71 256 1.0 3.0 0.00 0.00 0.00 89 915.0
20260507231812 70 42 1.0 3.0 0.00 0.00 0.00 89 915.0
20260507231810 70 43 1.0 3.0 0.00 0.00 0.00 89 915.0
20260507231310 70 119 1.0 2.0 0.00 0.00 0.00 88 914.9
20260507231211 70 117 1.0 2.0 0.00 0.00 0.00 88 915.0
20260507230810 70 70 0.0 2.0 0.00 0.00 0.00 88 914.9
20260507230611 70 204 0.0 2.0 0.00 0.00 0.00 88 914.9
20260507230309 70 158 0.0 2.0 0.00 0.00 0.00 88 914.9
20260507230011 70 103 0.0 2.0 0.00 0.00 0.00 88 914.8
20260507225809 70 95 0.0 3.0 0.00 0.00 0.00 87 914.8
20260507225411 70 120 1.0 2.0 0.00 0.00 0.00 88 914.8
20260507225309 70 148 1.0 2.0 0.00 0.00 0.00 88 914.8
20260507224809 69 83 1.0 2.0 0.00 0.00 0.00 88 914.7
20260507224309 69 81 1.0 2.0 0.00 0.00 0.00 88 914.7
20260507224211 69 80 1.0 2.0 0.00 0.00 0.00 88 914.7
20260507223611 69 98 1.0 3.0 0.00 0.00 0.00 89 914.6
20260507223309 68 220 1.0 4.0 0.00 0.00 0.00 89 914.5
20260507223011 68 284 2.0 4.0 0.00 0.00 0.00 89 914.5
20260507222809 68 323 2.0 4.0 0.00 0.00 0.00 89 914.4
20260507222309 68 303 3.0 5.0 0.00 0.00 0.00 89 914.4
20260507221809 67 303 3.0 5.0 0.00 0.00 0.00 90 914.4
20260507221309 67 293 4.0 5.0 0.00 0.00 0.00 90 914.4
20260507220809 67 297 3.0 5.0 0.00 0.00 0.00 90 914.3
20260507220309 67 289 4.0 5.0 0.00 0.00 0.00 90 914.3
20260507215809 67 278 4.0 5.0 0.00 0.00 0.00 90 914.2
20260507215309 67 307 4.0 5.0 0.00 0.00 0.00 90 914.2
20260507214809 67 275 4.0 5.0 0.00 0.00 0.00 90 914.1
20260507214309 67 276 4.0 5.0 0.00 0.00 0.00 90 914.1
20260507213809 67 283 4.0 4.0 0.00 0.00 0.00 90 914.1
20260507213309 67 280 2.0 4.0 0.00 0.00 0.00 90 914.1
20260507212809 67 307 3.0 4.0 0.00 0.00 0.00 90 914.0
20260507212309 68 300 3.0 4.0 0.00 0.00 0.00 89 914.0
20260507211809 68 295 3.0 4.0 0.00 0.00 0.00 89 913.9
20260507211309 68 284 2.0 4.0 0.00 0.00 0.00 89 913.8
20260507210809 68 305 3.0 4.0 0.00 0.00 0.00 89 913.9
20260507210308 68 303 3.0 4.0 0.00 0.00 0.00 89 913.8
20260507205808 68 285 3.0 5.0 0.00 0.00 0.00 89 913.8
20260507205309 68 283 3.0 5.0 0.00 0.00 0.00 88 913.7
20260507204808 68 296 3.0 4.0 0.00 0.00 0.00 88 913.7
20260507204308 68 273 3.0 4.0 0.00 0.00 0.00 88 913.5
20260507203809 68 285 3.0 4.0 0.00 0.00 0.00 88 913.5
20260507203308 69 296 3.0 4.0 0.00 0.00 0.00 87 913.5
20260507202808 69 288 2.0 2.0 0.00 0.00 0.00 85 913.4
20260507202308 69 302 1.0 2.0 0.00 0.00 0.00 85 913.5
20260507201808 69 299 2.0 3.0 0.00 0.00 0.00 85 913.4
20260507201308 69 295 2.0 3.0 0.00 0.00 0.00 85 913.4
20260507200808 69 294 2.0 3.0 0.00 0.00 0.00 86 913.3
20260507200309 69 297 3.0 3.0 0.00 0.00 0.00 86 913.3
20260507195808 69 294 2.0 3.0 0.00 0.00 0.00 86 913.3
20260507195308 69 305 3.0 3.0 0.00 0.00 0.00 86 913.3
20260507194808 69 287 1.0 3.0 0.00 0.00 0.00 86 913.2
20260507194308 69 286 2.0 3.0 0.00 0.00 0.00 86 913.2
20260507193808 69 287 2.0 3.0 0.00 0.00 0.00 87 913.2
20260507193308 68 299 3.0 3.0 0.00 0.00 0.00 88 913.2
20260507192808 68 300 3.0 4.0 0.00 0.00 0.00 88 913.3
20260507192308 68 312 3.0 4.0 0.00 0.00 0.00 88 913.3
20260507191808 68 311 3.0 3.0 0.00 0.00 0.00 88 913.3
20260507191308 68 311 3.0 3.0 0.00 0.00 0.00 88 913.3
20260507190308 68 300 2.0 4.0 0.00 0.00 0.00 88 913.5
20260507185808 68 331 2.0 5.0 0.00 0.00 0.00 89 913.6
20260507185307 68 313 3.0 5.0 0.00 0.00 0.00 89 913.6
20260507184808 68 314 3.0 5.0 0.00 0.00 0.00 89 913.6
20260507184307 68 335 3.0 5.0 0.00 0.00 0.00 88 913.6
20260507183807 68 320 3.0 4.0 0.00 0.00 0.00 89 913.6
20260507183307 68 317 3.0 4.0 0.00 0.00 0.00 88 913.7
20260507182807 68 343 3.0 4.0 0.00 0.00 0.00 89 913.7
20260507182307 68 304 3.0 5.0 0.00 0.00 0.00 89 913.8
20260507181807 68 298 3.0 5.0 0.00 0.00 0.00 89 913.9
20260507181307 67 300 4.0 6.0 0.00 0.00 0.00 88 913.9
20260507180807 67 287 5.0 6.0 0.00 0.00 0.00 88 914.0
20260507180307 68 289 4.0 5.0 0.00 0.00 0.00 88 914.1
20260507175807 68 284 2.0 5.0 0.00 0.00 0.00 88 914.0
20260507175307 68 293 4.0 5.0 0.00 0.00 0.00 88 914.0
20260507174807 68 296 4.0 4.0 0.00 0.00 0.00 88 914.0
20260507174309 68 283 4.0 4.0 0.00 0.00 0.00 88 914.1
20260507173807 67 266 3.0 4.0 0.00 0.00 0.00 87 914.1
20260507173307 67 268 2.0 4.0 0.00 0.00 0.00 87 914.2
20260507172807 67 262 2.0 4.0 0.00 0.00 0.00 87 914.2
20260507172408 67 243 1.0 3.0 0.00 0.00 0.00 87 914.2
20260507172308 67 267 1.0 3.0 0.00 0.00 0.00 87 914.2
20260507171808 67 248 2.0 3.0 0.00 0.00 0.00 87 914.2
20260507171308 67 219 1.0 3.0 0.00 0.00 0.00 87 914.2
20260507170807 67 195 2.0 3.0 0.00 0.00 0.00 87 914.2
20260507170608 67 200 2.0 3.0 0.00 0.00 0.00 86 914.2
20260507170307 67 212 1.0 3.0 0.00 0.00 0.00 86 914.3
20260507170008 67 182 2.0 3.0 0.00 0.00 0.00 87 914.3
20260507165807 67 202 2.0 3.0 0.00 0.00 0.00 87 914.3
20260507165408 67 191 1.0 2.0 0.00 0.00 0.00 87 914.3
20260507165307 67 202 1.0 2.0 0.00 0.00 0.00 87 914.3
20260507164808 67 167 0.0 3.0 0.00 0.00 0.00 87 914.3
20260507164308 67 180 1.0 3.0 0.00 0.00 0.00 87 914.3
20260507164208 67 143 2.0 3.0 0.00 0.00 0.00 87 914.3
20260507163807 67 166 1.0 2.0 0.00 0.00 0.00 86 914.4
20260507163608 67 212 1.0 2.0 0.00 0.00 0.00 86 914.4
20260507163306 67 212 1.0 2.0 0.00 0.00 0.00 86 914.4
20260507163008 67 193 1.0 2.0 0.00 0.00 0.00 86 914.4
20260507162408 67 250 0.0 2.0 0.00 0.00 0.00 87 914.5
20260507162307 67 228 0.0 2.0 0.00 0.00 0.00 87 914.4
20260507161808 67 136 1.0 2.0 0.00 0.00 0.00 87 914.4
20260507161806 67 141 1.0 2.0 0.00 0.00 0.00 87 914.4
20260507161308 67 108 1.0 2.0 0.00 0.00 0.00 87 914.5
20260507161208 67 116 1.0 2.0 0.00 0.00 0.00 87 914.5
20260507160806 67 168 0.0 1.0 0.00 0.00 0.00 87 914.6
20260507160608 66 188 0.0 0.0 0.00 0.00 0.00 88 914.6
20260507160306 66 165 0.0 0.0 0.00 0.00 0.00 88 914.6
20260507160008 66 141 1.0 2.0 0.00 0.00 0.00 88 914.6
20260507155806 66 167 1.0 2.0 0.00 0.00 0.00 88 914.6
20260507155407 66 174 2.0 2.0 0.00 0.00 0.00 88 914.6
20260507155307 67 177 1.0 2.0 0.00 0.00 0.00 88 914.6
20260507154808 67 175 1.0 2.0 0.00 0.00 0.00 88 914.5
20260507154806 67 173 1.0 2.0 0.00 0.00 0.00 88 914.5
20260507154308 67 198 1.0 2.0 0.00 0.00 0.00 88 914.6
20260507154208 66 199 1.0 2.0 0.00 0.00 0.00 88 914.6
20260507153807 66 207 1.0 2.0 0.00 0.00 0.00 88 914.5
20260507153607 66 202 2.0 2.0 0.00 0.00 0.00 88 914.5
20260507153306 66 205 1.0 2.0 0.00 0.00 0.00 89 914.6
20260507153007 66 204 0.0 1.0 0.00 0.00 0.00 89 914.7
20260507152806 66 236 1.0 2.0 0.00 0.00 0.00 89 914.7
20260507152407 66 215 0.0 2.0 0.00 0.00 0.00 89 914.7
20260507152307 66 189 2.0 3.0 0.00 0.00 0.00 89 914.7
20260507151808 66 219 2.0 3.0 0.00 0.00 0.00 89 914.7
20260507151806 66 219 2.0 3.0 0.00 0.00 0.00 89 914.8
20260507151306 67 229 1.0 3.0 0.00 0.00 0.00 88 914.7
20260507151207 67 246 2.0 3.0 0.00 0.00 0.00 88 914.7
20260507150806 67 226 2.0 2.0 0.00 0.00 0.00 87 914.7
20260507150607 67 215 1.0 2.0 0.00 0.00 0.00 87 914.8
20260507150306 67 266 1.0 2.0 0.00 0.00 0.00 88 914.8
20260507150007 67 257 1.0 2.0 0.00 0.00 0.00 88 914.8
20260507145806 67 272 1.0 2.0 0.00 0.00 0.00 88 914.8
20260507145407 66 264 1.0 3.0 0.00 0.00 0.00 88 914.9
20260507145307 66 266 1.0 3.0 0.00 0.00 0.00 88 914.9
20260507144807 66 197 2.0 3.0 0.00 0.00 0.00 88 914.9
20260507144306 66 228 2.0 4.0 0.00 0.00 0.00 88 914.9
20260507144207 66 193 2.0 4.0 0.00 0.00 0.00 88 914.9
20260507143806 67 187 2.0 4.0 0.00 0.00 0.00 88 914.8
20260507143607 67 207 3.0 4.0 0.00 0.00 0.00 88 914.9
20260507143306 67 219 2.0 3.0 0.00 0.00 0.00 88 914.9
20260507143007 67 207 3.0 3.0 0.00 0.00 0.00 88 914.9
20260507142805 67 187 2.0 3.0 0.00 0.00 0.00 88 914.9
20260507142407 67 194 2.0 3.0 0.00 0.00 0.00 88 914.8
20260507142307 67 249 2.0 3.0 0.00 0.00 0.00 88 914.8
20260507141807 67 187 1.0 3.0 0.00 0.00 0.00 88 914.8
20260507141805 67 184 1.0 3.0 0.00 0.00 0.00 88 914.7
20260507141306 66 187 2.0 4.0 0.00 0.00 0.00 88 914.7
20260507141207 66 115 2.0 5.0 0.00 0.00 0.00 88 914.7
20260507140805 66 151 2.0 5.0 0.00 0.00 0.00 88 914.6
20260507140607 66 158 3.0 5.0 0.00 0.00 0.00 88 914.5
20260507140305 66 172 1.0 5.0 0.00 0.00 0.00 88 914.6
20260507140007 66 168 2.0 4.0 0.00 0.00 0.00 88 914.6
20260507135805 66 145 1.0 2.0 0.00 0.00 0.00 88 914.6
20260507135407 67 124 1.0 2.0 0.00 0.00 0.00 88 914.5
20260507135306 67 115 1.0 2.0 0.00 0.00 0.00 89 914.5
20260507134807 67 158 2.0 5.0 0.00 0.00 0.00 89 914.5
20260507134805 67 164 2.0 5.0 0.00 0.00 0.00 89 914.5
20260507134305 66 124 0.0 3.0 0.00 0.00 0.00 88 914.4
20260507134207 67 111 2.0 3.0 0.00 0.00 0.00 88 914.3
20260507133805 67 88 1.0 3.0 0.00 0.00 0.00 88 914.3
20260507133305 66 79 2.0 4.0 0.00 0.00 0.00 88 914.2
20260507133007 66 112 2.0 6.0 0.00 0.00 0.00 88 914.2
20260507132805 66 114 3.0 6.0 0.00 0.00 0.00 89 914.2
20260507132406 66 103 4.0 5.0 0.00 0.00 0.00 89 914.1
20260507132307 66 122 4.0 5.0 0.00 0.00 0.00 89 914.1
20260507131808 66 91 3.0 4.0 0.00 0.00 0.00 89 914.1
20260507131806 66 97 3.0 4.0 0.00 0.00 0.00 89 914.2
20260507131305 67 133 1.0 3.0 0.00 0.00 0.00 90 914.1
20260507131206 67 87 0.0 2.0 0.00 0.00 0.00 90 914.1
20260507130805 67 360 1.0 3.0 0.00 0.00 0.00 90 914.1
20260507130606 67 359 1.0 3.0 0.00 0.00 0.00 90 914.1
20260507130305 67 104 1.0 3.0 0.00 0.00 0.00 90 914.0
20260507130006 68 119 2.0 4.0 0.00 0.00 0.00 89 914.0
20260507125805 68 138 2.0 3.0 0.00 0.00 0.00 89 914.0
20260507125406 68 140 0.0 1.0 0.00 0.00 0.00 89 913.9
20260507125307 68 124 0.0 1.0 0.00 0.00 0.00 89 914.0
20260507124807 68 27 0.0 0.0 0.00 0.00 0.00 88 913.9
20260507124805 68 28 0.0 0.0 0.00 0.00 0.00 88 913.9
20260507124305 69 79 0.0 1.0 0.00 0.00 0.00 88 913.9
20260507124206 69 43 0.0 1.0 0.00 0.00 0.00 88 913.8
20260507123805 68 14 1.0 2.0 0.00 0.00 0.00 88 913.7
20260507123606 68 49 2.0 3.0 0.00 0.00 0.00 89 913.7
20260507123305 68 79 1.0 2.0 0.00 0.00 0.00 89 913.6
20260507123006 68 64 0.0 1.0 0.00 0.00 0.00 90 913.6
20260507122804 68 119 1.0 3.0 0.00 0.00 0.00 90 913.6
20260507122406 68 104 1.0 3.0 0.00 0.00 0.00 90 913.6
20260507121806 67 137 0.0 3.0 0.00 0.00 0.00 91 913.6
20260507121804 67 138 0.0 3.0 0.00 0.00 0.00 91 913.5
20260507121304 68 150 2.0 3.0 0.00 0.00 0.00 91 913.5
20260507121206 68 135 2.0 3.0 0.00 0.00 0.00 91 913.5
20260507120804 68 128 1.0 2.0 0.00 0.00 0.00 91 913.5
20260507120606 68 128 1.0 2.0 0.00 0.00 0.00 90 913.5
20260507120305 68 118 1.0 2.0 0.00 0.00 0.00 90 913.5
20260507120006 68 132 0.0 1.0 0.00 0.00 0.00 90 913.4
20260507115804 68 174 1.0 2.0 0.00 0.00 0.00 90 913.4
20260507115406 68 50 0.0 0.0 0.00 0.00 0.00 90 913.4
20260507115307 68 347 0.0 0.0 0.00 0.00 0.00 90 913.4
20260507114806 67 39 0.0 1.0 0.00 0.00 0.00 91 913.3
20260507114804 67 41 0.0 1.0 0.00 0.00 0.00 91 913.3
20260507114304 67 129 1.0 2.0 0.00 0.00 0.00 92 913.2
20260507114205 67 134 1.0 2.0 0.00 0.00 0.00 92 913.2
20260507112405 68 141 0.0 3.0 0.00 0.00 0.00 91 912.9
20260507112307 68 193 2.0 3.0 0.00 0.00 0.00 91 912.9
20260507111806 68 166 0.0 0.0 0.00 0.00 0.00 91 913.0
20260507111804 68 173 0.0 0.0 0.00 0.00 0.00 91 912.9
20260507110605 68 134 1.0 2.0 0.00 0.00 0.00 91 913.0
20260507110304 68 150 1.0 2.0 0.00 0.00 0.00 91 912.9
20260507110005 68 176 1.0 2.0 0.00 0.00 0.00 91 912.9
20260507105804 68 187 2.0 4.0 0.00 0.00 0.00 91 912.9
20260507105405 68 189 1.0 3.0 0.00 0.00 0.00 92 912.9
20260507104804 68 202 2.0 4.0 0.00 0.00 0.00 92 912.9
20260507104304 68 197 2.0 2.0 0.00 0.00 0.00 92 912.9
20260507104205 68 213 1.0 2.0 0.00 0.00 0.00 92 912.9
20260507103804 68 321 0.0 0.0 0.00 0.00 0.00 93 912.9
20260507103605 67 197 0.0 0.0 0.00 0.00 0.00 93 912.9
20260507103304 67 199 2.0 4.0 0.00 0.00 0.00 94 912.8
20260507103005 67 205 0.0 3.0 0.00 0.00 0.00 94 912.8
20260507102804 67 267 0.0 1.0 0.00 0.00 0.00 95 912.7
20260507102405 68 136 0.0 2.0 0.00 0.00 0.00 95 912.7
20260507102306 68 135 0.0 2.0 0.00 0.00 0.00 95 912.7
20260507101806 68 134 0.0 1.0 0.00 0.00 0.00 95 912.7
20260507101804 68 135 0.0 1.0 0.00 0.00 0.00 95 912.7
20260507095405 68 174 0.0 3.0 0.00 0.00 0.00 96 912.6
20260507093803 69 181 3.0 4.0 0.00 0.00 0.00 95 912.5
20260507093606 68 214 0.0 0.0 0.00 0.00 0.00 95 912.6
20260507093303 69 210 2.0 4.0 0.00 0.00 0.00 95 912.6
20260507093004 69 201 3.0 5.0 0.00 0.00 0.00 95 912.5
20260507092803 69 210 0.0 4.0 0.00 0.00 0.00 95 912.5
20260507092404 69 212 3.0 5.0 0.00 0.00 0.00 95 912.5
20260507092306 69 184 3.0 5.0 0.00 0.00 0.00 95 912.5
20260507091805 69 265 3.0 6.0 0.00 0.00 0.00 94 912.5
20260507091803 69 264 3.0 6.0 0.00 0.00 0.00 94 912.5
20260507091303 69 214 4.0 6.0 0.00 0.00 0.00 95 912.5
20260507091204 69 208 3.0 6.0 0.00 0.00 0.00 95 912.6
20260507090604 69 250 2.0 5.0 0.00 0.00 0.00 95 912.5
20260507090304 69 228 4.0 6.0 0.00 0.00 0.00 95 912.5
20260507090006 69 218 4.0 7.0 0.00 0.00 0.00 94 912.5
20260507085404 69 185 3.0 5.0 0.00 0.00 0.00 95 912.5
20260507085306 69 221 3.0 5.0 0.00 0.00 0.00 95 912.5
20260507084805 69 220 3.0 4.0 0.00 0.00 0.00 95 912.6
20260507084803 69 203 3.0 4.0 0.00 0.00 0.00 95 912.6